Wind_Speed
52 49 43 36 36 38 38 35 33 31 30 28 27 27 27 27 26 26 26 25 25 26 25 25 26 27 27 25 24 24 24 24 24 24 24 23 23 22 22 21 21 20
51 51 47 42 42 43 42 39 35 34 32 30 29 29 29 28 26 26 26 26 25 26 26 26 26 27 28 27 25 25 25 25 24 25 24 24 23 23 22 22 21 21
48 49 48 45 43 42 42 41 38 36 33 31 31 31 31 29 28 27 27 27 27 27 27 27 26 27 28 28 26 26 26 26 25 25 25 24 24 24 23 23 23 22
47 47 45 43 41 41 42 42 40 37 34 33 33 34 34 31 29 28 28 28 29 29 29 28 28 27 28 28 27 27 27 27 26 25 25 25 25 24 24 24 24 23
46 45 43 42 41 41 41 41 41 39 36 35 36 37 36 32 30 29 29 29 30 30 30 30 29 29 28 27 27 27 28 28 27 26 26 26 25 25 25 25 25 25
46 44 42 42 41 42 42 43 42 41 39 38 38 39 37 34 32 31 30 30 30 31 31 31 31 30 29 27 26 27 28 29 28 27 26 26 26 26 26 26 26 25
48 45 43 42 43 43 44 45 44 43 41 39 40 41 39 36 33 32 31 31 31 32 32 32 32 32 30 27 25 27 29 30 29 28 26 27 27 27 27 27 26 24
50 47 44 43 44 45 45 46 46 45 44 43 42 42 40 38 35 34 33 31 32 32 33 33 33 33 32 29 25 27 29 30 30 28 27 27 28 28 28 28 27 26
52 48 46 44 44 44 44 45 45 45 46 45 43 43 41 39 37 36 34 32 32 33 34 34 34 33 33 30 27 27 29 30 30 29 28 28 28 29 28 28 27 27
53 50 48 46 45 44 44 44 44 44 46 45 45 44 42 40 39 39 36 33 33 34 34 35 35 34 33 32 29 28 30 31 30 30 29 28 29 29 29 28 28 27
53 51 50 48 47 46 45 45 44 43 45 46 45 45 44 42 41 41 38 35 34 35 35 35 36 35 34 33 30 29 31 31 30 30 29 29 29 29 29 29 29 29
53 51 52 51 49 48 47 45 44 43 45 46 45 45 45 44 42 42 40 37 36 36 36 36 36 36 34 33 31 31 32 32 30 29 30 30 30 30 30 30 30 30
52 51 53 54 51 50 49 47 45 44 45 46 45 46 47 45 43 42 41 40 38 37 37 37 37 36 35 33 32 32 32 32 30 29 30 30 30 30 30 31 31 31
57 53 54 55 53 52 52 49 47 47 47 47 46 46 47 47 45 43 43 43 41 38 38 38 37 37 36 33 32 32 32 31 31 30 29 30 30 31 31 31 31 32
61 57 56 56 54 54 54 53 50 50 50 49 48 47 48 48 47 45 45 45 43 40 39 39 38 37 36 33 32 32 32 31 31 30 29 30 30 31 32 32 32 33
62 58 58 58 56 55 56 56 54 53 52 52 50 49 49 50 49 48 47 46 44 42 40 40 39 38 37 34 31 31 32 31 31 30 30 30 30 31 32 32 33 33
62 59 59 61 59 57 57 58 58 57 54 53 52 50 51 51 51 51 50 46 44 42 41 41 40 39 39 35 31 31 32 32 31 30 30 31 31 31 32 33 33 34
63 60 60 62 61 59 58 58 59 59 57 55 53 51 52 53 53 53 51 46 44 43 42 42 41 41 40 36 31 31 33 32 30 29 30 31 31 31 32 33 33 34
64 61 61 62 62 61 60 59 60 60 59 56 54 52 53 55 55 54 50 46 44 43 42 43 42 42 41 37 31 32 34 33 30 29 30 32 31 31 33 33 33 34
66 63 62 63 63 64 62 60 60 60 59 57 55 53 55 57 56 53 49 46 45 44 43 44 44 42 42 38 33 33 35 34 31 29 30 32 31 31 33 33 34 35
67 65 64 63 64 65 64 61 60 60 59 58 56 55 56 57 55 52 49 46 46 45 45 46 45 44 43 39 34 34 36 36 32 29 30 32 31 31 32 33 34 35
68 67 66 65 64 66 66 63 60 60 59 58 56 55 55 56 56 53 51 49 48 47 48 47 46 46 44 39 34 35 37 37 34 30 30 32 31 30 32 33 34 35
68 68 69 68 66 67 67 64 61 59 57 57 57 56 54 55 56 55 52 51 50 50 50 49 47 47 45 39 35 36 38 38 35 31 30 32 31 30 32 34 34 34
66 67 70 70 68 67 68 66 62 59 57 54 55 56 54 53 55 55 54 53 52 52 52 50 49 48 46 40 36 37 39 39 36 32 31 32 31 30 32 34 34 33
65 67 70 69 67 66 68 67 62 58 56 53 52 54 54 54 56 56 56 55 54 53 53 51 49 49 46 41 37 38 40 40 37 33 31 31 30 30 32 35 34 33
67 68 69 68 67 66 67 67 64 59 56 54 52 52 53 55 56 57 57 55 54 54 54 52 49 48 46 42 39 39 41 40 37 34 32 31 31 31 32 34 34 33
Wind_Direction
233 225 226 238 251 254 257 262 268 272 274 274 270 263 258 262 269 273 278 284 289 295 302 308 314 316 313 308 304 304 304 305 306 305 302 296 293 294 294 292 291 290
237 231 232 245 254 255 257 261 265 266 267 269 267 261 257 261 266 270 275 282 286 292 299 307 312 315 314 309 303 302 303 303 304 304 302 296 293 294 293 292 291 290
238 238 242 249 252 253 256 259 260 260 261 264 262 258 256 259 264 267 273 280 284 289 296 303 310 313 314 309 302 300 301 302 303 304 303 297 293 293 294 293 292 291
239 242 245 247 247 248 253 257 257 255 257 260 259 256 255 257 262 266 271 277 281 286 293 300 307 311 313 308 301 298 300 300 301 303 304 299 294 294 294 293 292 291
236 240 242 243 243 246 251 254 254 252 254 258 257 254 254 256 259 263 268 274 279 284 291 297 303 309 312 307 298 296 298 299 299 302 303 300 295 293 293 292 292 292
233 236 238 239 240 242 247 250 249 248 252 256 255 252 253 254 256 260 265 272 277 282 288 294 299 305 311 307 297 293 296 297 298 300 301 300 296 293 293 292 292 292
235 234 235 237 239 241 245 246 246 249 253 255 254 251 251 254 256 258 263 269 275 281 286 291 296 302 308 308 297 291 293 295 296 298 299 299 297 294 293 293 293 291
238 237 236 237 239 242 245 247 248 252 255 254 252 250 249 253 256 258 261 267 273 279 284 289 294 299 305 307 300 290 291 293 294 296 297 298 298 294 293 293 293 290
239 239 239 239 241 243 246 248 250 253 254 252 250 248 248 250 255 258 260 266 271 276 282 287 291 296 301 306 302 292 289 290 292 294 294 296 297 295 293 293 293 290
235 238 240 241 242 244 246 249 251 252 252 250 248 247 247 248 253 257 260 264 269 274 280 284 288 293 299 304 302 295 289 289 291 291 291 293 295 294 294 293 291 289
233 236 239 241 242 244 245 248 250 251 251 249 246 245 245 247 251 256 259 262 267 272 277 282 286 290 296 301 302 297 291 289 290 290 289 290 292 294 293 292 290 288
235 238 241 241 241 242 244 246 248 250 249 246 244 244 244 246 250 255 259 262 265 270 275 279 284 288 293 298 301 298 293 289 289 288 287 288 291 293 293 291 290 289
239 243 244 243 242 241 243 244 245 247 247 245 244 244 245 246 250 254 258 261 263 268 272 277 281 286 291 296 299 297 293 290 288 286 286 288 290 292 293 291 290 289
241 243 243 243 243 242 241 242 242 243 244 244 245 246 246 247 250 253 256 259 262 266 270 274 279 284 289 294 296 294 292 289 287 285 285 287 289 291 292 291 290 290
240 240 239 240 242 242 241 241 241 242 243 244 246 247 246 247 249 252 254 257 261 264 268 273 278 282 287 292 293 292 290 288 286 286 286 286 287 288 290 291 290 289
237 238 237 237 238 240 241 241 241 242 243 245 247 247 245 246 248 251 252 255 260 263 267 272 277 280 285 289 290 289 287 286 285 285 285 285 285 287 288 290 290 289
236 236 237 238 237 238 240 241 241 242 243 244 247 247 245 244 247 249 251 254 258 262 267 271 275 279 283 286 287 285 284 285 284 284 285 284 285 285 286 288 289 289
235 235 236 237 237 237 239 240 241 241 242 243 245 246 244 244 246 248 251 253 256 260 266 270 273 277 281 284 283 281 282 283 283 284 284 284 285 285 285 287 289 289
236 235 235 236 238 239 238 239 240 240 240 242 244 245 244 243 245 248 250 252 255 260 264 268 271 275 278 281 280 278 280 282 282 284 284 284 285 285 284 286 288 289
236 236 235 237 239 239 238 239 240 240 240 241 243 244 244 243 245 248 251 252 255 260 264 266 270 272 275 278 277 276 279 282 282 283 284 284 285 285 285 285 287 289
235 236 236 237 239 238 237 239 240 240 240 240 242 244 244 244 246 248 250 252 255 259 263 265 268 270 272 274 274 275 278 280 281 282 283 284 285 285 285 285 286 288
236 236 237 237 238 237 238 239 239 240 240 239 241 243 244 244 245 247 250 253 256 259 262 265 267 268 270 272 272 274 277 279 280 281 282 283 284 285 285 284 285 287
237 238 238 237 237 237 237 237 238 239 240 239 240 241 243 244 245 248 251 254 257 260 262 264 265 266 269 270 269 272 275 278 279 280 281 282 284 285 285 284 284 288
237 238 238 238 237 236 236 236 237 239 240 240 240 241 242 244 245 248 251 253 257 259 260 262 263 265 267 267 267 270 274 277 279 280 280 281 283 285 284 282 284 287
235 236 238 239 239 238 237 236 236 237 239 239 240 240 241 243 245 248 251 253 255 257 258 260 262 263 265 266 265 269 273 276 279 279 278 280 283 284 282 281 283 284
233 234 236 237 238 238 239 238 235 236 238 238 238 239 240 242 244 247 250 252 253 254 256 258 260 262 263 264 264 267 272 276 278 278 278 280 282 281 280 281 282 283
Height
5802 5805 5808 5810 5813 5814 5816 5818 5820 5821 5822 5823 5824 5825 5826 5827 5827 5827 5828 5829 5830 5830 5831 5830 5830 5828 5827 5827 5827 5827 5826 5825 5824 5823 5823 5822 5820 5820 5819 5818 5818 5817
5798 5801 5804 5806 5808 5810 5812 5815 5817 5818 5818 5819 5821 5822 5823 5824 5825 5825 5826 5826 5827 5827 5828 5828 5827 5826 5825 5825 5825 5824 5824 5823 5822 5821 5820 5819 5818 5817 5817 5816 5815 5814
5793 5797 5800 5803 5805 5807 5809 5811 5813 5814 5815 5816 5817 5818 5820 5821 5822 5823 5823 5823 5824 5825 5825 5825 5825 5824 5823 5822 5822 5822 5821 5821 5820 5819 5818 5817 5816 5815 5814 5814 5813 5812
5789 5792 5796 5799 5801 5802 5804 5806 5808 5810 5811 5812 5813 5815 5816 5817 5819 5820 5821 5821 5821 5822 5822 5822 5822 5822 5821 5820 5820 5819 5819 5818 5817 5817 5816 5814 5813 5813 5812 5811 5810 5809
5785 5788 5792 5794 5796 5798 5800 5802 5804 5805 5807 5808 5809 5811 5812 5814 5816 5817 5818 5818 5818 5818 5819 5819 5819 5819 5819 5818 5817 5817 5816 5815 5815 5814 5813 5812 5811 5810 5809 5808 5807 5807
5780 5783 5786 5788 5791 5794 5796 5798 5799 5801 5803 5805 5806 5807 5808 5810 5812 5814 5815 5815 5815 5815 5816 5816 5816 5816 5816 5816 5815 5814 5813 5812 5812 5812 5811 5810 5808 5808 5807 5806 5805 5804
5774 5778 5781 5784 5786 5789 5791 5793 5794 5796 5798 5800 5802 5803 5805 5807 5809 5810 5811 5812 5812 5812 5813 5813 5813 5814 5814 5813 5813 5812 5811 5810 5809 5809 5808 5807 5806 5805 5804 5804 5804 5803
5768 5772 5776 5779 5781 5784 5786 5788 5790 5792 5794 5796 5798 5800 5802 5803 5805 5806 5808 5809 5809 5809 5809 5810 5810 5811 5811 5811 5810 5809 5808 5807 5806 5806 5806 5805 5804 5803 5802 5802 5801 5800
5762 5766 5771 5774 5776 5779 5781 5784 5786 5788 5790 5792 5794 5796 5798 5799 5801 5802 5803 5805 5805 5806 5806 5806 5807 5808 5808 5808 5807 5807 5806 5805 5804 5804 5803 5803 5802 5801 5800 5800 5799 5798
5756 5761 5764 5768 5771 5774 5777 5779 5782 5784 5785 5788 5790 5792 5794 5795 5796 5797 5799 5801 5802 5802 5803 5803 5804 5805 5805 5805 5804 5804 5803 5802 5802 5801 5801 5801 5799 5799 5798 5798 5797 5796
5751 5756 5759 5763 5766 5769 5772 5775 5777 5779 5781 5783 5785 5788 5790 5791 5792 5792 5795 5797 5798 5799 5799 5800 5800 5802 5802 5802 5802 5801 5800 5799 5799 5799 5798 5798 5797 5796 5796 5795 5794 5793
5748 5752 5755 5758 5762 5765 5768 5771 5773 5775 5776 5778 5781 5783 5785 5786 5787 5788 5790 5793 5794 5795 5795 5796 5797 5798 5799 5799 5799 5798 5797 5796 5796 5796 5795 5794 5794 5794 5793 5793 5792 5791
5744 5749 5751 5754 5758 5761 5763 5766 5768 5770 5771 5774 5777 5779 5781 5782 5783 5785 5786 5788 5790 5791 5791 5792 5793 5795 5796 5796 5796 5795 5793 5793 5793 5793 5792 5791 5791 5791 5790 5790 5789 5788
5740 5744 5747 5749 5753 5756 5759 5761 5763 5765 5767 5769 5772 5774 5777 5778 5779 5781 5782 5784 5785 5787 5788 5788 5790 5791 5792 5793 5793 5792 5791 5790 5790 5790 5790 5789 5788 5788 5788 5787 5786 5785
5735 5738 5741 5744 5747 5750 5753 5755 5757 5760 5762 5764 5766 5770 5772 5774 5775 5776 5778 5779 5781 5782 5783 5784 5786 5787 5788 5790 5790 5789 5788 5787 5787 5787 5787 5786 5786 5785 5785 5784 5784 5783
5729 5732 5735 5737 5740 5744 5747 5750 5753 5755 5756 5758 5761 5764 5767 5769 5770 5771 5773 5775 5776 5778 5779 5780 5782 5783 5785 5786 5786 5786 5785 5784 5784 5784 5783 5783 5782 5782 5782 5782 5781 5780
5722 5727 5730 5731 5734 5738 5741 5744 5747 5749 5751 5754 5756 5759 5762 5764 5765 5766 5768 5771 5773 5773 5774 5776 5778 5779 5780 5782 5783 5782 5781 5781 5781 5780 5780 5779 5779 5779 5779 5778 5778 5777
5715 5721 5724 5726 5729 5732 5736 5739 5741 5743 5746 5749 5751 5753 5757 5759 5760 5761 5764 5767 5768 5769 5770 5772 5773 5775 5776 5778 5779 5778 5777 5777 5777 5777 5776 5776 5776 5776 5775 5775 5775 5774
5709 5714 5718 5720 5723 5727 5731 5733 5734 5736 5740 5743 5746 5749 5751 5753 5754 5756 5759 5762 5764 5765 5767 5768 5769 5771 5772 5773 5775 5774 5774 5773 5774 5774 5773 5772 5772 5773 5772 5771 5771 5770
5702 5707 5711 5713 5716 5720 5724 5727 5728 5730 5734 5738 5741 5743 5745 5747 5750 5752 5755 5758 5759 5761 5762 5763 5765 5767 5768 5769 5770 5770 5769 5769 5769 5770 5769 5768 5769 5769 5768 5768 5767 5767
5696 5700 5704 5706 5710 5714 5718 5721 5722 5724 5728 5732 5735 5737 5740 5743 5745 5747 5750 5753 5754 5756 5758 5759 5761 5763 5764 5765 5766 5765 5765 5765 5765 5766 5766 5764 5765 5765 5764 5764 5764 5763
5690 5694 5696 5699 5703 5707 5711 5714 5716 5718 5722 5726 5729 5732 5735 5738 5740 5742 5745 5748 5750 5751 5753 5754 5757 5758 5759 5761 5762 5761 5760 5760 5761 5762 5762 5761 5761 5762 5761 5760 5760 5760
5684 5687 5689 5692 5696 5699 5703 5707 5710 5713 5716 5720 5723 5726 5729 5732 5734 5737 5740 5742 5744 5746 5747 5749 5752 5753 5755 5757 5758 5756 5756 5756 5756 5758 5758 5757 5757 5758 5757 5756 5756 5757
5676 5679 5680 5684 5688 5692 5696 5700 5703 5706 5710 5714 5717 5720 5724 5727 5729 5732 5734 5736 5738 5740 5742 5744 5747 5748 5750 5752 5753 5752 5751 5751 5752 5753 5754 5753 5753 5754 5753 5752 5752 5753
5668 5670 5672 5676 5682 5686 5690 5693 5697 5700 5703 5707 5711 5715 5718 5721 5723 5725 5728 5730 5733 5735 5736 5738 5741 5743 5745 5747 5748 5747 5747 5747 5747 5749 5749 5749 5750 5750 5749 5747 5748 5749
5660 5661 5663 5669 5675 5679 5683 5687 5690 5694 5696 5700 5704 5708 5711 5714 5716 5719 5721 5724 5727 5729 5730 5733 5736 5738 5741 5742 5743 5742 5742 5742 5743 5744 5745 5745 5745 5745 5744 5743 5744 5744